Location: Bourg-d�Oueil
(42.8588°N, 0.4991°E)
Time: 02:59:36
(UTC+00:00)

FALCON 9 DEB - Pass Details

Date: 16 June 2021
Orbit: 362 x 379 km, 53.0° (Epoch: 04 August)

Event Time Altitude Azimuth Distance (km) Brightness Sun altitude
Exits shadow 22:58:44 36° 29° (NNE) 633 4.3 -22.3°
Drops below altitude 10° 23:00:51 10° 48° (NE) 1,419 6.0 -22.4°
Sets 23:02:56 0° 52° (NE) 2,275 7.1 -22.5°
